TimeMST,TemperatureF,Dew PointF,Humidity,Sea Level PressureIn,VisibilityMPH,Wind Direction,Wind SpeedMPH,Gust SpeedMPH,PrecipitationIn,Events,Conditions,WindDirDegrees,DateUTC
12:54 AM,9.0,3.9,80,30.43,10.0,WSW,8.1,-,N/A,,Mostly Cloudy,240,2013-01-02 07:54:00
1:54 AM,7.0,1.9,80,30.43,10.0,WSW,8.1,-,N/A,,Clear,240,2013-01-02 08:54:00
2:54 AM,5.0,1.0,84,30.43,10.0,WSW,10.4,-,N/A,,Clear,240,2013-01-02 09:54:00
3:54 AM,3.9,-0.0,84,30.43,10.0,SW,10.4,-,N/A,,Clear,220,2013-01-02 10:54:00
4:54 AM,1.9,-2.0,83,30.45,10.0,SW,11.5,-,N/A,,Clear,230,2013-01-02 11:54:00
5:54 AM,1.9,-2.0,83,30.47,10.0,WSW,8.1,-,N/A,,Clear,250,2013-01-02 12:54:00
6:54 AM,1.9,-2.0,83,30.48,10.0,WSW,9.2,-,N/A,,Clear,240,2013-01-02 13:54:00
7:54 AM,-0.0,-4.0,83,30.51,10.0,WSW,13.8,-,N/A,,Clear,250,2013-01-02 14:54:00
8:54 AM,1.9,-0.9,88,30.51,10.0,SSW,3.5,-,N/A,,Clear,210,2013-01-02 15:54:00
9:54 AM,3.9,-0.9,80,30.51,10.0,Calm,Calm,-,N/A,,Clear,0,2013-01-02 16:54:00
10:54 AM,7.0,1.0,77,30.49,10.0,West,4.6,-,N/A,,Clear,280,2013-01-02 17:54:00
11:54 AM,10.9,3.9,73,30.47,10.0,WSW,9.2,-,N/A,,Clear,250,2013-01-02 18:54:00
12:54 PM,14.0,5.0,67,30.46,10.0,West,10.4,-,N/A,,Clear,270,2013-01-02 19:54:00
2:54 PM,15.1,6.1,68,30.48,10.0,WSW,8.1,-,N/A,,Clear,250,2013-01-02 21:54:00
3:54 PM,12.9,5.0,71,30.49,10.0,SW,10.4,-,N/A,,Clear,230,2013-01-02 22:54:00
4:54 PM,10.0,1.9,70,30.53,10.0,WSW,11.5,-,N/A,,Clear,250,2013-01-02 23:54:00
5:54 PM,7.0,-0.0,73,30.55,10.0,WSW,10.4,-,N/A,,Clear,240,2013-01-03 00:54:00
7:54 PM,9.0,1.9,73,30.57,10.0,Calm,Calm,-,N/A,,Clear,0,2013-01-03 02:54:00
8:54 PM,7.0,-0.0,73,30.59,10.0,Calm,Calm,-,N/A,,Clear,0,2013-01-03 03:54:00
9:54 PM,3.9,-0.0,84,30.61,10.0,South,4.6,-,N/A,,Clear,190,2013-01-03 04:54:00
10:54 PM,3.9,-0.0,84,30.61,10.0,Calm,Calm,-,N/A,,Clear,0,2013-01-03 05:54:00
11:54 PM,3.0,-0.9,84,30.60,10.0,WNW,3.5,-,N/A,,Clear,300,2013-01-03 06:54:00